GLOBALSTAR M004 DEB, 43356

Orbit data source: Space-Track

GLOBALSTAR M004 DEB, 43356 is space debris in LEO originally from a launch on Sat, 14 Feb 1998 UTC launched from the Air Force Eastern Test Range (AFETR). Debris objects in space refer to the collection of defunct objects orbiting the Earth. Examples of debris include non-operational satellites, rocket bodies, and fragments generated from explosions, collisions, or faulty payload assembly.

Loading next visibility...
Identifier
43356, 1998-008G
Orbit
LEO
Country
Flag of USUS
Related business
Manufacturer
Unknown
Mission
Spacecraft
Bus & Motor
Unknown
Mass
Unknown
Launch date (UTC)
1998-02-14 (28 years ago)
Launch vehicle
Unknown
Launch site
Air Force Eastern Test Range (AFETR)
Object type
Payload
Rocket body
Debris
Shape & HBR
Unknown shape, 0.1 m
Radar Cross Section
Small (<0.1 m²)

Expand to show TLE details & history
Last TLE update: 2 days ago

TLE from 2 days ago
0 GLOBALSTAR M004 DEB
1 43356U 98008G   25284.99297940  .00000829  00000-0  41890-2 0  9999
2 43356  51.9012 154.2633 0053042  46.3765 314.1491 12.78307859453544
Epoch: 2025-10-11T23:49Z
TLE epoch observation values (Epoch: 2025-10-11T23:49:53.420Z)
Latitude
0.00005°
Longitude
135.97425°
Altitude
1,320.527 km
Speed
7.211 km/s
True Right ascension
10h 17m 03s
True Declination
0° 00' 00"
Sunlit
Object was in daylight at epoch
Visualization orbit readout
Latitude
Unknown
Longitude
Unknown
Altitude
Unknown
Speed
Unknown
Apparent Right ascension
Unknown
Apparent Declination
Unknown
Sunlit
N/A
Visualization observer readout
Local Sidereal Time
21:09:34
Azimuth
Unknown
Elevation
Unknown
Doppler factor
Unknown
Orbital elements
Apogee altitude
1,389.676 km
Perigee altitude
1,307.706 km
Semi-major axis
7,726.828 km
Eccentricity
0.0053
Inclination
51.9012°
RAAN
154.2633°
Arg. of periapsis
46.3765°
True anomaly
313.71095°
Mean anomaly
314.1491°
Eccentric anomaly
313.93023°
Mean motion
3.19552 °/min
Orbital period
112.66 mins
BSTAR
0.004189
Loading maneuver chart data...
Computing Atmospheric mass density...
Loading historical data...
Loading historical data...
Loading historical data...
Loading historical data...
Loading historical data...
Loading historical data...
Loading historical data...

Documentation

Showing up to 5 results
|